Location: Hradec Kralove
(50.2170°N, 15.8330°E)
Time: 03:22:59
(UTC+01:00)

N. Korean satellite - Pass Details

Date: 08 December 2022
Orbit: 407 x 442 km, 97.3° (Epoch: 05 February)

Event Time Altitude Azimuth Distance (km) Brightness Sun altitude
Rises 04:56:43 0° 19° (NNE) 2,512 10.4 -25.4°
Reaches altitude 10° 04:58:53 10° 27° (NNE) 1,625 9.4 -25.0°
Maximum altitude 05:02:11 39° 98° (E) 702 7.8 -24.5°
Drops below altitude 10° 05:05:24 10° 169° (S) 1,584 9.4 -24.0°
Sets 05:07:29 0° 177° (S) 2,440 10.3 -23.7°
